Weather History for LEVD - December, 2012

Change the Weather History Date:

Saturday, December 15, 2012

  Actual Average Record
Temperature  
Mean Temperature 47 °F -  
Max Temperature 50 °F - - ()
Min Temperature 44 °F - - ()
Degree Days  
Heating Degree Days 18    
Moisture  
Dew Point 44 °F    
Average Humidity 89    
Maximum Humidity 100    
Minimum Humidity 71    
Precipitation  
Precipitation 0.00 in - - ()
Sea Level Pressure  
Sea Level Pressure 30.00 in    
Wind  
Wind Speed 16 mph ()    
Max Wind Speed 25 mph    
Max Gust Speed -    
Visibility 6.2 miles    
Events      
T = Trace of Precipitation, MM = Missing Value Source: Averaged Metar Reports

Daily Weather History Graph

Daily Weather History Graph

Search for Another Location

Airport or City:

Trip Planner

Search our weather history database for the weather conditions in past years. The results will help you decide how hot, cold, wet, or windy it might be!

Date:

Astronomy

Dec. 15, 2012 Rise Set
Actual Time 8:39 AM CET 5:49 PM CET
Civil Twilight 8:08 AM CET 6:21 PM CET
Nautical Twilight 7:33 AM CET 6:56 PM CET
Astronomical Twilight 6:59 AM CET 7:30 PM CET
Moon 10:20 AM CET (12/15) 8:38 PM CET (12/15)
Length of Visible Light 10h 13m
Length of Day
9h 10m
Waxing Crescent, 7% of the Moon is Illuminated
Dec 15
Waxing Crescent
Dec 20
First Quarter
Dec 28
Full
Jan 5
Last Quarter
Jan 11
New

Hourly Weather History & Observations

Time (CET) Temp. Windchill Dew Point Humidity Pressure Visibility Wind Dir Wind Speed Gust Speed Precip Events Conditions
6:00 AM 46.4 °F 38.7 °F 44.6 °F 93% 29.86 in 6.2 mi WSW 20.7 mph - N/A   Drizzle
6:30 AM 46.4 °F 38.7 °F 44.6 °F 93% 29.89 in 6.2 mi WSW 20.7 mph - N/A   Mostly Cloudy
7:00 AM 44.6 °F 37.2 °F 42.8 °F 93% 29.89 in 6.2 mi WSW 17.3 mph - N/A   Scattered Clouds
7:30 AM 44.6 °F 37.2 °F 42.8 °F 93% 29.89 in 6.2 mi WSW 17.3 mph - N/A   Partly Cloudy
8:00 AM 44.6 °F 37.2 °F 42.8 °F 93% 29.92 in 6.2 mi WSW 17.3 mph - N/A   Scattered Clouds
8:30 AM 44.6 °F 37.8 °F 44.6 °F 100% 29.92 in 6.2 mi WSW 15.0 mph - N/A   Scattered Clouds
9:00 AM 44.6 °F 38.1 °F 42.8 °F 93% 29.95 in 6.2 mi SW 13.8 mph - N/A   Mostly Cloudy
9:30 AM 44.6 °F 39.2 °F 44.6 °F 100% 29.95 in 6.2 mi SSW 10.4 mph - N/A   Mostly Cloudy
10:00 AM 46.4 °F 41.1 °F 44.6 °F 93% 29.98 in 6.2 mi SSW 11.5 mph - N/A   Scattered Clouds
10:30 AM 46.4 °F 40.7 °F 46.4 °F 100% 29.98 in 6.2 mi SW 12.7 mph - N/A   Scattered Clouds
11:00 AM 48.2 °F - 46.4 °F 93% 30.01 in 6.2 mi SW 17.3 mph - N/A   Scattered Clouds
11:30 AM 48.2 °F - 46.4 °F 93% 30.01 in 6.2 mi WSW 19.6 mph - N/A   Scattered Clouds
12:00 PM 50.0 °F - 44.6 °F 82% 30.01 in 6.2 mi WSW 21.9 mph - N/A   Scattered Clouds
12:30 PM 48.2 °F - 42.8 °F 82% 30.01 in 6.2 mi WSW 20.7 mph - N/A   Scattered Clouds
1:00 PM 50.0 °F - 42.8 °F 76% 30.01 in 6.2 mi WSW 25.3 mph - N/A   Scattered Clouds
1:30 PM 50.0 °F - 42.8 °F 76% 30.01 in 6.2 mi WSW 23.0 mph - N/A   Scattered Clouds
2:00 PM 50.0 °F - 42.8 °F 76% 30.01 in 6.2 mi WSW 23.0 mph - N/A   Scattered Clouds
2:30 PM 50.0 °F - 41.0 °F 71% 30.01 in 6.2 mi West 24.2 mph - N/A   Scattered Clouds
3:00 PM 50.0 °F - 42.8 °F 76% 30.01 in 6.2 mi WSW 20.7 mph - N/A   Scattered Clouds
3:30 PM 50.0 °F - 42.8 °F 76% 30.01 in 6.2 mi WSW 21.9 mph - N/A   Scattered Clouds
4:00 PM 50.0 °F - 42.8 °F 76% 30.01 in 6.2 mi WSW 18.4 mph - N/A   Scattered Clouds
4:30 PM 50.0 °F - 44.6 °F 82% 30.01 in 6.2 mi WSW 16.1 mph - N/A   Scattered Clouds
5:00 PM 48.2 °F - 44.6 °F 87% 30.01 in 6.2 mi WSW 17.3 mph - N/A   Scattered Clouds
5:30 PM 48.2 °F - 44.6 °F 87% 30.04 in 6.2 mi WSW 16.1 mph - N/A   Scattered Clouds
6:00 PM 48.2 °F - 42.8 °F 82% 30.04 in 6.2 mi SW 13.8 mph - N/A   Scattered Clouds
6:30 PM 48.2 °F - 42.8 °F 82% 30.04 in 6.2 mi SW 12.7 mph - N/A   Scattered Clouds
7:00 PM 48.2 °F - 44.6 °F 87% 30.06 in 6.2 mi SW 12.7 mph - N/A   Scattered Clouds
7:30 PM 46.4 °F 39.2 °F 46.4 °F 100% 30.06 in 6.2 mi WSW 18.4 mph - N/A   Light Drizzle
8:00 PM 46.4 °F 39.8 °F 46.4 °F 100% 30.06 in 6.2 mi WSW 16.1 mph - N/A   Drizzle
8:30 PM 46.4 °F 40.4 °F 46.4 °F 100% 30.06 in 6.2 mi WSW 13.8 mph - N/A   Mostly Cloudy
9:00 PM 46.4 °F 40.4 °F 46.4 °F 100% 30.06 in 6.2 mi SW 13.8 mph - N/A   Mostly Cloudy
9:30 PM 46.4 °F 39.2 °F 46.4 °F 100% 30.09 in 6.2 mi WSW 18.4 mph - N/A   Mostly Cloudy
10:00 PM 46.4 °F 39.2 °F 46.4 °F 100% 30.09 in 6.2 mi WSW 18.4 mph - N/A   Mostly Cloudy
10:30 PM 44.6 °F 38.1 °F 44.6 °F 100% 30.09 in 6.2 mi SW 13.8 mph - N/A   Mostly Cloudy